St. Joseph, KS

5:13 PM CST on November 11, 2019 (GMT -0600)
Rosecrans Memorial

Weather History for KSTJ - September, 2019

Change the Weather History Date:

Sunday, September 1, 2019

  Actual Average Record
Temperature  
Mean Temperature 71 °F 72 °F  
Max Temperature 81 °F 84 °F 104 °F (1922)
Min Temperature 61 °F 60 °F 41 °F (1967)
Degree Days  
Heating Degree Days 0 0  
Month to date heating degree days 0 0  
Since 1 July heating degree days 0 5  
Cooling Degree Days 6 7  
Month to date cooling degree days 6 7  
Year to date cooling degree days 1150 1084  
Growing Degree Days 21 (Base 50)    
Moisture  
Dew Point 63 °F    
Average Humidity 76    
Maximum Humidity 93    
Minimum Humidity 58    
Precipitation  
Precipitation 0.00 in 0.16 in 2.35 in (1926)
Month to date precipitation 0.00 0.16  
Year to date precipitation 29.27 26.46  
Sea Level Pressure  
Sea Level Pressure 30.12 in    
Wind  
Wind Speed 3 mph (SE)    
Max Wind Speed 9 mph    
Max Gust Speed 13 mph    
Visibility 10 miles    
Events      
T = Trace of Precipitation, MM = Missing Value Source: NWS Daily Summary

Daily Weather History Graph

Daily Weather History Graph

Search for Another Location

Airport or City:

Astronomy

Sep. 01, 2019 Rise Set
Actual Time 6:47 AM CDT 7:51 PM CDT
Civil Twilight 6:19 AM CDT 8:18 PM CDT
Nautical Twilight 5:46 AM CDT 8:51 PM CDT
Astronomical Twilight 5:12 AM CDT 9:25 PM CDT
Moon 9:18 AM CDT (9/1) 9:39 PM CDT (9/1)
Length of Visible Light 13h 58m
Length of Day
13h 03m
Waxing Crescent, 8% of the Moon is Illuminated
Sep 1
Waxing Crescent
Sep 5
First Quarter
Sep 13
Full
Sep 21
Last Quarter
Sep 28
New

Hourly Weather History & Observations

Time (CDT) Temp. Heat Index Dew Point Humidity Pressure Visibility Wind Dir Wind Speed Gust Speed Precip Events Conditions
12:53 AM 66.0 °F - 61.0 °F 84% 30.14 in 10.0 mi NE 4.6 mph - N/A   Overcast
1:53 AM 64.9 °F - 60.1 °F 84% 30.14 in 10.0 mi ENE 4.6 mph - N/A   Mostly Cloudy
2:10 AM 64.0 °F - 60.1 °F 87% 30.15 in 10.0 mi NE 4.6 mph - N/A   Scattered Clouds
2:53 AM 63.0 °F - 60.1 °F 90% 30.13 in 10.0 mi Calm Calm - N/A   Clear
3:53 AM 62.1 °F - 59.0 °F 90% 30.12 in 10.0 mi NE 3.5 mph - N/A   Clear
4:37 AM 62.1 °F - 59.0 °F 90% 30.14 in 10.0 mi NW 3.5 mph - N/A   Mostly Cloudy
4:53 AM 63.0 °F - 61.0 °F 93% 30.12 in 10.0 mi NE 3.5 mph - N/A   Overcast
5:53 AM 64.0 °F - 61.0 °F 90% 30.12 in 10.0 mi Calm Calm - N/A   Overcast
6:53 AM 64.0 °F - 61.0 °F 90% 30.13 in 10.0 mi East 3.5 mph - N/A   Overcast
7:53 AM 64.9 °F - 62.1 °F 90% 30.15 in 10.0 mi Calm Calm - N/A   Overcast
8:53 AM 66.0 °F - 62.1 °F 87% 30.15 in 10.0 mi SSE 3.5 mph - N/A   Overcast
9:53 AM 68.0 °F - 63.0 °F 84% 30.16 in 10.0 mi South 3.5 mph - N/A   Overcast
10:24 AM 70.0 °F - 64.0 °F 81% 30.17 in 10.0 mi Calm Calm - N/A   Overcast
10:36 AM 70.0 °F - 64.0 °F 81% 30.17 in 10.0 mi Calm Calm - N/A   Overcast
10:53 AM 71.1 °F - 64.0 °F 78% 30.16 in 10.0 mi Calm Calm - N/A   Overcast
11:53 AM 75.0 °F - 64.9 °F 71% 30.15 in 10.0 mi SSW 4.6 mph - N/A   Overcast
12:53 PM 78.1 °F - 64.0 °F 62% 30.13 in 10.0 mi Calm Calm - N/A   Mostly Cloudy
1:53 PM 77.0 °F - 64.0 °F 64% 30.11 in 10.0 mi West 3.5 mph - N/A   Overcast
2:53 PM 79.0 °F - 64.0 °F 60% 30.09 in 10.0 mi Variable 3.5 mph - N/A   Overcast
3:53 PM 80.1 °F 81.9 °F 64.9 °F 60% 30.07 in 10.0 mi South 6.9 mph - N/A   Clear
4:53 PM 79.0 °F - 64.9 °F 62% 30.06 in 10.0 mi South 8.1 mph - N/A   Scattered Clouds
5:53 PM 80.1 °F 81.9 °F 64.9 °F 60% 30.06 in 10.0 mi South 5.8 mph - N/A   Partly Cloudy
6:53 PM 77.0 °F - 66.9 °F 71% 30.05 in 10.0 mi South 3.5 mph - N/A   Scattered Clouds
7:53 PM 72.0 °F - 66.0 °F 81% 30.06 in 10.0 mi SSE 4.6 mph - N/A   Clear
8:53 PM 72.0 °F - 66.9 °F 84% 30.07 in 10.0 mi SE 3.5 mph - N/A   Overcast
9:53 PM 70.0 °F - 66.9 °F 90% 30.08 in 9.0 mi Calm Calm - N/A   Scattered Clouds
10:53 PM 68.0 °F - 64.9 °F 90% 30.09 in 9.0 mi Calm Calm - N/A   Clear
11:53 PM 69.1 °F - 66.9 °F 93% 30.09 in 8.0 mi Calm Calm - N/A   Overcast